TimeEDT,TemperatureF,Dew PointF,Humidity,Sea Level PressureIn,VisibilityMPH,Wind Direction,Wind SpeedMPH,Gust SpeedMPH,PrecipitationIn,Events,Conditions,WindDirDegrees,DateUTC
12:13 AM,44.6,39.2,81,29.83,10.0,SW,9.2,23.0,0.01,,Overcast,220,2011-10-21 04:13:00
12:53 AM,44.1,39.0,82,29.86,10.0,WSW,8.1,-,0.01,,Overcast,240,2011-10-21 04:53:00
1:53 AM,44.1,39.0,82,29.88,10.0,SW,8.1,17.3,N/A,,Overcast,220,2011-10-21 05:53:00
2:26 AM,44.6,37.4,76,29.88,10.0,WSW,11.5,23.0,N/A,,Overcast,240,2011-10-21 06:26:00
2:53 AM,44.1,39.0,82,29.90,10.0,WSW,9.2,18.4,N/A,,Overcast,240,2011-10-21 06:53:00
3:53 AM,43.0,39.0,86,29.90,10.0,WSW,6.9,-,N/A,,Overcast,240,2011-10-21 07:53:00
4:53 AM,44.1,39.0,82,29.92,10.0,SW,6.9,-,N/A,,Overcast,230,2011-10-21 08:53:00
5:53 AM,44.1,39.0,82,29.94,10.0,SW,9.2,-,N/A,,Overcast,230,2011-10-21 09:53:00
6:53 AM,44.1,39.0,82,29.97,10.0,Variable,3.5,-,N/A,,Overcast,0,2011-10-21 10:53:00
7:53 AM,45.0,37.9,76,29.98,10.0,Variable,5.8,-,N/A,,Overcast,0,2011-10-21 11:53:00
8:53 AM,44.1,39.0,82,30.01,10.0,Variable,6.9,-,N/A,,Overcast,0,2011-10-21 12:53:00
9:53 AM,44.1,39.0,82,30.04,10.0,Variable,6.9,-,N/A,,Overcast,0,2011-10-21 13:53:00
10:53 AM,44.6,39.2,81,30.04,10.0,Variable,5.8,-,N/A,,Overcast,0,2011-10-21 14:53:00
11:53 AM,45.0,37.9,76,30.07,10.0,Variable,5.8,-,N/A,,Overcast,0,2011-10-21 15:53:00
12:53 PM,46.0,39.0,76,30.07,10.0,Variable,4.6,-,N/A,,Overcast,0,2011-10-21 16:53:00
1:53 PM,46.0,39.0,76,30.06,10.0,Variable,5.8,-,N/A,,Overcast,0,2011-10-21 17:53:00
2:53 PM,46.9,39.0,74,30.06,10.0,SW,4.6,-,N/A,,Overcast,220,2011-10-21 18:53:00
3:53 PM,46.9,39.9,77,30.07,10.0,SW,5.8,-,N/A,,Overcast,230,2011-10-21 19:53:00
4:53 PM,48.0,39.0,71,30.09,10.0,SSW,5.8,-,N/A,,Overcast,210,2011-10-21 20:53:00
5:53 PM,48.0,39.0,71,30.10,10.0,Calm,Calm,-,N/A,,Overcast,0,2011-10-21 21:53:00
6:13 PM,48.2,39.2,71,30.10,10.0,Calm,Calm,-,N/A,,Overcast,0,2011-10-21 22:13:00
6:41 PM,46.4,39.2,76,30.11,10.0,WSW,4.6,-,0.00,,Overcast,240,2011-10-21 22:41:00
6:53 PM,46.9,39.9,77,30.12,10.0,WSW,3.5,-,0.00,,Overcast,240,2011-10-21 22:53:00
7:53 PM,46.9,41.0,80,30.14,10.0,Calm,Calm,-,N/A,,Overcast,0,2011-10-21 23:53:00
8:03 PM,46.4,41.0,81,30.12,10.0,Calm,Calm,-,N/A,,Overcast,0,2011-10-22 00:03:00
8:53 PM,46.0,41.0,83,30.15,10.0,Calm,Calm,-,N/A,,Overcast,0,2011-10-22 00:53:00
9:53 PM,46.9,39.9,77,30.16,10.0,South,3.5,-,N/A,,Overcast,190,2011-10-22 01:53:00
10:53 PM,46.9,39.9,77,30.15,10.0,Calm,Calm,-,N/A,,Overcast,0,2011-10-22 02:53:00
11:53 PM,46.9,39.9,77,30.14,10.0,SSW,4.6,-,N/A,,Overcast,200,2011-10-22 03:53:00